DW6376 Weather Reports


time (UTC)temp
C
wind
direction
speed
KPH
gust
KPH
rain 1hr
cm
rain 24hr
cm
rain mn
cm
humidity
%
barometer
mb
20260508203033 23 37 1.6 0.0 0.00 0.00 0.00 22 1014.1
20260508201531 23 286 1.6 0.0 0.00 0.00 0.00 22 1014.3
20260508200038 22 38 1.6 0.0 0.00 0.00 0.00 21 1014.2
20260508194527 22 317 1.6 0.0 0.00 0.00 0.00 22 1014.4
20260508193026 22 46 1.6 0.0 0.00 0.00 0.00 22 1014.3
20260508191525 22 355 1.6 0.0 0.00 0.00 0.00 25 1014.5
20260508190022 21 116 1.6 0.0 0.00 0.00 0.00 25 1014.8
20260508184502 21 44 1.6 0.0 0.00 0.00 0.00 26 1015.0
20260508183100 21 360 1.6 0.0 0.00 0.00 0.00 29 1015.1
20260508181559 20 291 0.0 0.0 0.00 0.00 0.00 30 1015.1
20260508180045 20 41 1.6 0.0 0.00 0.00 0.00 30 1015.2
20260508174545 20 43 1.6 0.0 0.00 0.00 0.00 29 1015.3
20260508173046 19 5 0.0 0.0 0.00 0.00 0.00 28 1015.4
20260508171538 19 317 1.6 0.0 0.00 0.00 0.00 30 1015.4
20260508170039 18 33 0.0 0.0 0.00 0.00 0.00 44 1015.3
20260508164532 17 33 0.0 0.0 0.00 0.00 0.00 43 1015.2
20260508163029 17 33 0.0 0.0 0.00 0.00 0.00 44 1015.2
20260508161513 16 33 0.0 0.0 0.00 0.00 0.00 46 1015.1
20260508160016 15 33 0.0 0.0 0.00 0.00 0.00 47 1015.1
20260508154507 15 33 0.0 0.0 0.00 0.00 0.00 51 1015.2
20260508153003 14 33 0.0 0.0 0.00 0.00 0.00 51 1015.2
20260508151604 13 33 0.0 0.0 0.00 0.00 0.00 53 1015.1
20260508144620 11 33 0.0 0.0 0.00 0.00 0.00 67 1015.1
20260508143109 10 33 0.0 0.0 0.00 0.00 0.00 67 1015.2
20260508141550 10 33 0.0 0.0 0.00 0.00 0.00 70 1015.2
20260508140046 9 33 0.0 0.0 0.00 0.00 0.00 72 1015.1
20260508134541 9 33 0.0 0.0 0.00 0.00 0.00 69 1015.1
20260508133104 8 33 0.0 0.0 0.00 0.00 0.00 67 1015.0
20260508131533 8 33 0.0 0.0 0.00 0.00 0.00 64 1014.9
20260508130031 9 33 0.0 0.0 0.00 0.00 0.00 62 1014.8
20260508124533 9 33 0.0 0.0 0.00 0.00 0.00 60 1014.5
20260508123028 9 33 0.0 0.0 0.00 0.00 0.00 63 1014.4
20260508121534 9 33 0.0 0.0 0.00 0.00 0.00 62 1014.3
20260508120008 9 33 0.0 0.0 0.00 0.00 0.00 60 1014.2
20260508114508 9 33 0.0 0.0 0.00 0.00 0.00 61 1014.3
20260508113106 9 33 0.0 0.0 0.00 0.00 0.00 59 1014.2
20260508111602 10 33 0.0 0.0 0.00 0.00 0.00 59 1014.0
20260508110056 10 33 0.0 0.0 0.00 0.00 0.00 58 1014.1
20260508104550 10 33 0.0 0.0 0.00 0.00 0.00 56 1013.9
20260508103058 10 33 0.0 0.0 0.00 0.00 0.00 56 1013.8
20260508101549 10 33 0.0 0.0 0.00 0.00 0.00 57 1013.8
20260508100046 10 33 0.0 0.0 0.00 0.00 0.00 55 1013.9
20260508094545 10 33 0.0 0.0 0.00 0.00 0.00 55 1013.7
20260508093030 10 33 0.0 0.0 0.00 0.00 0.00 56 1013.7
20260508091525 11 33 0.0 0.0 0.00 0.00 0.00 55 1013.5
20260508090011 11 33 0.0 0.0 0.00 0.00 0.00 53 1013.5
20260508084504 11 33 0.0 0.0 0.00 0.00 0.00 53 1013.5
20260508083045 11 33 0.0 0.0 0.00 0.00 0.00 53 1013.7
20260508081544 11 33 0.0 0.0 0.00 0.00 0.00 52 1013.7
20260508080031 11 33 0.0 0.0 0.00 0.00 0.00 50 1013.6
20260508074539 12 33 0.0 0.0 0.00 0.00 0.00 50 1013.6
20260508073033 12 33 0.0 0.0 0.00 0.00 0.00 51 1013.7
20260508071530 12 33 0.0 0.0 0.00 0.00 0.00 49 1013.9
20260508070025 12 33 0.0 0.0 0.00 0.00 0.00 50 1014.0
20260508064524 12 33 0.0 0.0 0.00 0.00 0.00 50 1013.9
20260508063023 12 33 0.0 0.0 0.00 0.00 0.00 47 1013.8
20260508061524 12 33 0.0 0.0 0.00 0.00 0.00 49 1013.6
20260508060011 12 33 0.0 0.0 0.00 0.00 0.00 49 1013.4
20260508054511 12 33 0.0 0.0 0.00 0.00 0.00 48 1013.4
20260508053018 13 33 0.0 0.0 0.00 0.00 0.00 47 1013.4
20260508051511 13 33 0.0 0.0 0.00 0.00 0.00 45 1013.4
20260508050010 13 33 0.0 0.0 0.00 0.00 0.00 46 1013.5
20260508044510 13 33 0.0 0.0 0.00 0.00 0.00 45 1013.5
20260508043009 14 33 0.0 0.0 0.00 0.00 0.00 44 1013.6
20260508041509 14 33 0.0 0.0 0.00 0.00 0.00 41 1013.7
20260508040110 15 33 0.0 0.0 0.00 0.00 0.00 42 1013.7
20260508034603 15 33 0.0 0.0 0.00 0.00 0.00 42 1013.5
20260508033055 16 33 0.0 0.0 0.00 0.00 0.00 41 1013.3
20260508031559 16 33 0.0 0.0 0.00 0.00 0.00 41 1013.3
20260508030055 17 33 0.0 0.0 0.00 0.00 0.00 38 1013.2
20260508024605 17 33 0.0 0.0 0.00 0.00 0.00 39 1013.0
20260508023054 18 33 0.0 0.0 0.00 0.00 0.00 35 1013.0
20260508021554 20 33 0.0 0.0 0.00 0.00 0.00 34 1012.9
20260508020046 21 33 0.0 0.0 0.00 0.00 0.00 30 1012.9
20260508014540 21 33 0.0 0.0 0.00 0.00 0.00 33 1012.9
20260508013039 22 33 0.0 0.0 0.00 0.00 0.00 31 1013.0
20260508011546 22 33 0.0 0.0 0.00 0.00 0.00 28 1013.0
20260508010036 22 33 0.0 0.0 0.00 0.00 0.00 25 1013.3
20260508004534 22 33 0.0 0.0 0.00 0.00 0.00 27 1013.5
20260508003036 22 33 0.0 0.0 0.00 0.00 0.00 27 1013.6
20260508001530 22 33 0.0 0.0 0.00 0.00 0.00 23 1013.8
20260508000018 23 38 0.0 0.0 0.00 0.00 0.00 24 1014.0
20260507234516 23 38 1.6 0.0 0.00 0.00 0.00 23 1014.0
20260507233029 23 30 1.6 0.0 0.00 0.00 0.00 22 1014.3
20260507231513 23 21 0.0 0.0 0.00 0.00 0.00 25 1014.3
20260507230011 24 32 1.6 0.0 0.00 0.00 0.00 21 1014.6
20260507224509 24 21 1.6 0.0 0.00 0.00 0.00 23 1014.9
20260507223006 23 21 0.0 0.0 0.00 0.00 0.00 22 1015.1
20260507221504 23 21 0.0 0.0 0.00 0.00 0.00 23 1015.3
20260507220048 23 28 0.0 0.0 0.00 0.00 0.00 25 1015.5
20260507214546 22 355 1.6 0.0 0.00 0.00 0.00 23 1015.8
20260507213058 22 252 0.0 0.0 0.00 0.00 0.00 25 1016.0
20260507211547 23 28 0.0 0.0 0.00 0.00 0.00 25 1016.2
20260507210048 23 28 0.0 0.0 0.00 0.00 0.00 23 1016.5
20260507204538 22 28 0.0 0.0 0.00 0.00 0.00 24 1016.9